カタログに戻る

TELSTAR 401

運用中通信GEO
NORAD 22927·PAYLOAD·🇺🇸 United States

打ち上げ Dec 16, 1993 から Cape Canaveral Space Force Station

Loading…

TLE

最新Source: Space-Track

元期: Sep 14, 2026, 05:34 UTC

1 22927U 93077A   26257.23239100 -.00000134  00000-0  00000-0 0  9999
2 22927  14.4281 350.1715 0008827 166.4792 176.9852  1.00286839119462

AllMySatでTELSTAR 401をリアルタイム追跡

Download on the App Store